User: anonymous   Login
Location: Unspecified
(0.0000°N, 0.0000°E)
Time: 09:16:43
(UTC+00:00)
Language:

USA 135 - Orbit

View from above orbital plane
View from above orbital plane
View from above satellite
View from above satellite

Ground track
Ground track

The orbit data is extracted from the following two-line orbital elements,

1 25019U 97065A   18012.11850412 0.00000000  00000-0  00000-0 0    01
2 25019   9.1611  42.2925 0005446 203.2810 156.7056  1.00270000    06
Epoch (UTC): 12 January 2018 02:50:38
Eccentricity: 0.0005446
inclination: 9.1611°
perigee height: 35764 km
apogee height: 35809 km
right ascension of ascending node: 42.2925°
argument of perigee: 203.2810°
revolutions per day: 1.00270000
mean anomaly at epoch: 156.7056°
orbit number at epoch: 0

The dashed part of the orbit path shows where the satellite is in the earth's shadow,  

DLR